Location: Cicognara
(44.9500°N, 10.4667°E)
Time: 23:44:09
(UTC+00:00)

Okean 1-7 Rocket - Pass Details

Date: 20 June 2021
Orbit: 616 x 649 km, 82.5° (Epoch: 23 July)

Event Time Altitude Azimuth Distance (km) Brightness Sun altitude
Exits shadow 22:54:13 38° 235° (SW) 967 4.3 -21.4°
Maximum altitude 22:55:28 50° 282° (WNW) 807 4.2 -21.4°
Drops below altitude 10° 22:59:48 10° 358° (N) 2,009 7.3 -21.5°
Sets 23:02:06 0° 4° (N) 2,916 8.5 -21.5°
